This is the latest recevied weather packets stored in our database for station/object WB0OCV. If no packets are shown the sender has not sent any weather packets the latest 10 day(s).
| Time | Temp. | Humidity | Pressure | Rain* | Wind** | Luminosity | Snow |
|---|---|---|---|---|---|---|---|
| 1777591101 | 10° C | 94% | 1008.7 hPa | 0 mm | - | 3 W/m² | - |
| 1777590796 | 10° C | 94% | 1008.4 hPa | 0 mm | - | 4 W/m² | - |
| 1777590492 | 10° C | 94% | 1008.5 hPa | 0 mm | - | 5 W/m² | - |
| 1777590189 | 10° C | 95% | 1008.3 hPa | 0 mm | - | 7 W/m² | - |
| 1777589886 | 10° C | 95% | 1008.4 hPa | 0 mm | - | 8 W/m² | - |
| 1777589582 | 10.56° C | 95% | 1008.3 hPa | 0 mm | - | 9 W/m² | - |
| 1777589279 | 10.56° C | 95% | 1008.2 hPa | 0 mm | - | 12 W/m² | - |
| 1777588977 | 10.56° C | 95% | 1008.2 hPa | 0 mm | - | 15 W/m² | - |
| 1777588672 | 10.56° C | 94% | 1008.2 hPa | 0 mm | - | 20 W/m² | - |
| 1777588368 | 10.56° C | 94% | 1008.2 hPa | 0 mm | - | 24 W/m² | - |
| 1777588064 | 11.11° C | 93% | 1008 hPa | 0 mm | - | 32 W/m² | - |
| 1777587760 | 11.11° C | 92% | 1008 hPa | 0 mm | - | 35 W/m² | - |
| 1777587459 | 11.11° C | 92% | 1007.9 hPa | 0 mm | - | 36 W/m² | - |
| 1777587156 | 11.11° C | 92% | 1007.9 hPa | 0 mm | - | 43 W/m² | - |
| 1777586851 | 11.11° C | 92% | 1007.7 hPa | 0 mm | - | 52 W/m² | - |
| 1777586547 | 11.11° C | 94% | 1007.6 hPa | 0 mm | - | 55 W/m² | - |
| 1777586243 | 11.11° C | 94% | 1007.7 hPa | 0 mm | - | 59 W/m² | - |
| 1777585941 | 11.67° C | 95% | 1007.5 hPa | 0 mm | - | 65 W/m² | - |
| 1777585636 | 11.11° C | 95% | 1007.6 hPa | 0 mm | - | 77 W/m² | - |
| 1777585331 | 11.11° C | 95% | 1007.8 hPa | 0 mm | - | 56 W/m² | - |
| 1777585026 | 11.67° C | 95% | 1007.7 hPa | 0 mm | - | 42 W/m² | - |
| 1777584723 | 11.67° C | 96% | 1007.6 hPa | 0 mm | - | 54 W/m² | - |
| 1777584421 | 11.11° C | 96% | 1007.7 hPa | 0 mm | - | 50 W/m² | - |
| 1777584117 | 11.11° C | 96% | 1007.7 hPa | 0 mm | - | 46 W/m² | - |
| 1777583815 | 11.67° C | 96% | 1007.6 hPa | 0 mm | - | 44 W/m² | - |
* Rain latest hour (hover to see other rain measurements)
** Current wind speed in m/s (hover to see current wind gust speed)